When you browse on this site, cookies collect data to enhance your experience and personalize the content and advertising you see.
Visit our Privacy Policy to learn more. By continuing to use the site, you agree to this use of cookies and data.
  • în România
  • Lista ţărilor
  • Pe 7 zile
  • Temperatura apei
  • Meteo pe hartă
  • Widget-uri
  • user-avatar
    Intrare

    Meteo pe oră la Ituni

    Astăzi, 28 Ianuarie, Marţi

    Timp Temperatura Precipitaţii Vânt Presiune Umiditate
    00:00 +24°C° 0 mm 1 m/s 754 mmHg 98%
    01:00 +22°C° 0 mm 0 m/s 753 mmHg 98%
    02:00 +22°C° 0 mm 0 m/s 752 mmHg 99%
    03:00 +22°C° 0 mm 0 m/s 753 mmHg 99%
    04:00 +22°C° 0 mm 0 m/s 753 mmHg 99%
    05:00 +21°C° 0 mm 0 m/s 753 mmHg 99%
    06:00 +22°C° 0 mm 0 m/s 753 mmHg 96%
    07:00 +23°C° 0 mm 0 m/s 753 mmHg 94%
    08:00 +24°C° 0 mm 0 m/s 754 mmHg 91%
    09:00 +26°C° 0.1 mm 0 m/s 754 mmHg 82%
    10:00 +30°C° 0.1 mm 1 m/s 754 mmHg 72%
    11:00 +31°C° 0.1 mm 1 m/s 754 mmHg 63%
    12:00 +32°C° 0 mm 1 m/s 753 mmHg 59%
    13:00 +33°C° 0 mm 1 m/s 752 mmHg 54%
    14:00 +34°C° 0 mm 1 m/s 751 mmHg 50%
    15:00 +34°C° 0 mm 1 m/s 750 mmHg 52%
    16:00 +33°C° 0 mm 1 m/s 750 mmHg 55%
    17:00 +33°C° 0 mm 1 m/s 750 mmHg 58%
    18:00 +31°C° 0 mm 2 m/s 750 mmHg 65%
    19:00 +29°C° 0 mm 2 m/s 751 mmHg 73%
    20:00 +27°C° 0 mm 3 m/s 751 mmHg 80%
    21:00 +27°C° 0 mm 2 m/s 752 mmHg 83%
    22:00 +26°C° 0 mm 2 m/s 752 mmHg 86%
    23:00 +25°C° 0 mm 1 m/s 752 mmHg 89%

    Mâine, 29 Ianuarie, Miercuri

    Timp Temperatura Precipitaţii Vânt Presiune Umiditate
    00:00 +25°C° 0 mm 1 m/s 752 mmHg 91%
    01:00 +25°C° 0 mm 1 m/s 752 mmHg 93%
    02:00 +22°C° 0 mm 0 m/s 751 mmHg 94%
    03:00 +23°C° 0 mm 0 m/s 751 mmHg 94%
    04:00 +23°C° 0 mm 0 m/s 751 mmHg 94%
    05:00 +23°C° 0 mm 0 m/s 752 mmHg 94%
    06:00 +26°C° 0.1 mm 1 m/s 752 mmHg 92%
    07:00 +26°C° 0.1 mm 1 m/s 753 mmHg 89%
    08:00 +27°C° 0.1 mm 1 m/s 753 mmHg 87%
    09:00 +29°C° 0.2 mm 1 m/s 753 mmHg 79%
    10:00 +30°C° 0.2 mm 2 m/s 753 mmHg 71%
    11:00 +32°C° 0.2 mm 2 m/s 753 mmHg 63%
    12:00 +34°C° 0.3 mm 2 m/s 752 mmHg 59%
    13:00 +34°C° 0.3 mm 2 m/s 752 mmHg 55%
    14:00 +35°C° 0.3 mm 2 m/s 751 mmHg 52%
    15:00 +34°C° 0.1 mm 2 m/s 750 mmHg 55%
    16:00 +32°C° 0.1 mm 2 m/s 750 mmHg 59%
    17:00 +31°C° 0.1 mm 2 m/s 750 mmHg 63%
    18:00 +30°C° 0 mm 2 m/s 750 mmHg 69%
    19:00 +28°C° 0 mm 2 m/s 751 mmHg 76%
    20:00 +27°C° 0 mm 2 m/s 752 mmHg 83%
    21:00 +26°C° 0 mm 1 m/s 752 mmHg 87%
    22:00 +25°C° 0 mm 1 m/s 752 mmHg 90%
    23:00 +25°C° 0 mm 1 m/s 753 mmHg 94%

    Poimâine, 30 Ianuarie, Joi

    Timp Temperatura Precipitaţii Vânt Presiune Umiditate
    00:00 +25°C° 0 mm 1 m/s 752 mmHg 93%
    01:00 +25°C° 0 mm 1 m/s 752 mmHg 92%
    02:00 +25°C° 0 mm 1 m/s 752 mmHg 91%
    03:00 +25°C° 0 mm 1 m/s 752 mmHg 90%
    04:00 +25°C° 0 mm 1 m/s 752 mmHg 90%
    05:00 +25°C° 0 mm 1 m/s 752 mmHg 90%
    06:00 +26°C° 0.1 mm 1 m/s 753 mmHg 89%
    07:00 +26°C° 0.1 mm 1 m/s 753 mmHg 89%
    08:00 +26°C° 0.1 mm 1 m/s 754 mmHg 89%
    09:00 +28°C° 0.1 mm 1 m/s 754 mmHg 81%
    10:00 +29°C° 0.1 mm 2 m/s 754 mmHg 72%
    11:00 +31°C° 0.1 mm 2 m/s 754 mmHg 64%
    12:00 +31°C° 0.3 mm 2 m/s 753 mmHg 64%
    13:00 +31°C° 0.3 mm 2 m/s 752 mmHg 64%
    14:00 +32°C° 0.3 mm 2 m/s 751 mmHg 64%
    15:00 +31°C° 0.5 mm 2 m/s 751 mmHg 69%
    16:00 +30°C° 0.5 mm 2 m/s 751 mmHg 75%
    17:00 +29°C° 0.5 mm 2 m/s 751 mmHg 80%
    18:00 +28°C° 0.1 mm 2 m/s 751 mmHg 83%
    19:00 +27°C° 0.1 mm 2 m/s 752 mmHg 86%
    20:00 +25°C° 0.1 mm 1 m/s 752 mmHg 90%
    21:00 +25°C° 0 mm 1 m/s 753 mmHg 91%
    22:00 +25°C° 0 mm 1 m/s 753 mmHg 93%
    23:00 +24°C° 0 mm 1 m/s 754 mmHg 94%

    31 Ianuarie, Vineri

    Timp Temperatura Precipitaţii Vânt Presiune Umiditate
    00:00 +24°C° 0 mm 1 m/s 753 mmHg 95%
    01:00 +24°C° 0 mm 1 m/s 753 mmHg 96%
    02:00 +24°C° 0 mm 1 m/s 752 mmHg 97%
    03:00 +24°C° 0 mm 1 m/s 752 mmHg 98%
    04:00 +21°C° 0 mm 0 m/s 752 mmHg 98%
    05:00 +21°C° 0 mm 0 m/s 752 mmHg 98%
    06:00 +24°C° 0.2 mm 1 m/s 753 mmHg 96%
    07:00 +25°C° 0.2 mm 1 m/s 754 mmHg 94%
    08:00 +26°C° 0.2 mm 1 m/s 754 mmHg 92%
    09:00 +27°C° 0.3 mm 1 m/s 754 mmHg 84%
    10:00 +29°C° 0.3 mm 2 m/s 754 mmHg 76%
    11:00 +31°C° 0.3 mm 2 m/s 754 mmHg 67%
    12:00 +31°C° 0.6 mm 2 m/s 753 mmHg 68%
    13:00 +31°C° 0.6 mm 2 m/s 753 mmHg 69%
    14:00 +31°C° 0.6 mm 2 m/s 752 mmHg 71%
    15:00 +30°C° 0.1 mm 2 m/s 752 mmHg 71%
    16:00 +30°C° 0.1 mm 2 m/s 751 mmHg 72%
    17:00 +29°C° 0.1 mm 2 m/s 751 mmHg 73%
    18:00 +28°C° 0 mm 2 m/s 752 mmHg 77%
    19:00 +27°C° 0 mm 2 m/s 752 mmHg 82%
    20:00 +26°C° 0 mm 2 m/s 753 mmHg 87%
    21:00 +25°C° 0 mm 1 m/s 753 mmHg 88%
    22:00 +25°C° 0 mm 1 m/s 754 mmHg 90%
    23:00 +25°C° 0 mm 1 m/s 754 mmHg 91%

    1 Februarie, Sâmbătă

    Timp Temperatura Precipitaţii Vânt Presiune Umiditate
    00:00 +25°C° 0 mm 1 m/s 753 mmHg 92%
    01:00 +25°C° 0 mm 1 m/s 753 mmHg 92%
    02:00 +25°C° 0 mm 1 m/s 753 mmHg 93%
    03:00 +25°C° 0.1 mm 1 m/s 753 mmHg 93%
    04:00 +25°C° 0.1 mm 1 m/s 753 mmHg 92%
    05:00 +25°C° 0.1 mm 1 m/s 753 mmHg 92%
    06:00 +25°C° 0.2 mm 1 m/s 753 mmHg 92%
    07:00 +25°C° 0.2 mm 1 m/s 754 mmHg 92%
    08:00 +26°C° 0.2 mm 1 m/s 754 mmHg 91%
    09:00 +27°C° 0.2 mm 2 m/s 754 mmHg 81%
    10:00 +29°C° 0.2 mm 2 m/s 755 mmHg 71%
    11:00 +31°C° 0.2 mm 2 m/s 755 mmHg 61%
    12:00 +31°C° 0.2 mm 2 m/s 754 mmHg 63%
    13:00 +31°C° 0.2 mm 3 m/s 753 mmHg 64%
    14:00 +31°C° 0.2 mm 3 m/s 752 mmHg 65%
    15:00 +30°C° 0.1 mm 3 m/s 752 mmHg 63%
    16:00 +30°C° 0.1 mm 3 m/s 752 mmHg 62%
    17:00 +30°C° 0.1 mm 3 m/s 751 mmHg 61%
    18:00 +28°C° 0 mm 2 m/s 752 mmHg 67%
    19:00 +27°C° 0 mm 2 m/s 752 mmHg 74%
    20:00 +25°C° 0 mm 1 m/s 753 mmHg 80%
    21:00 +24°C° 0 mm 1 m/s 753 mmHg 84%
    22:00 +24°C° 0 mm 1 m/s 753 mmHg 88%
    23:00 +23°C° 0 mm 1 m/s 753 mmHg 91%

    2 Februarie, Duminică

    Timp Temperatura Precipitaţii Vânt Presiune Umiditate
    00:00 +21°C° 0 mm 0 m/s 753 mmHg 93%
    01:00 +21°C° 0 mm 0 m/s 753 mmHg 95%
    02:00 +20°C° 0 mm 0 m/s 752 mmHg 96%
    03:00 +20°C° 0 mm 0 m/s 752 mmHg 96%
    04:00 +20°C° 0 mm 0 m/s 752 mmHg 97%
    05:00 +20°C° 0 mm 0 m/s 752 mmHg 97%
    06:00 +21°C° 0 mm 0 m/s 753 mmHg 93%
    07:00 +22°C° 0 mm 0 m/s 754 mmHg 89%
    08:00 +25°C° 0 mm 1 m/s 754 mmHg 85%
    09:00 +27°C° 0 mm 1 m/s 754 mmHg 76%
    10:00 +29°C° 0 mm 1 m/s 754 mmHg 66%
    11:00 +30°C° 0 mm 1 m/s 754 mmHg 57%
    12:00 +31°C° 0.1 mm 2 m/s 754 mmHg 55%
    13:00 +32°C° 0.1 mm 2 m/s 753 mmHg 53%
    14:00 +34°C° 0.1 mm 2 m/s 752 mmHg 51%
    15:00 +32°C° 0 mm 2 m/s 752 mmHg 53%
    16:00 +31°C° 0 mm 2 m/s 752 mmHg 55%
    17:00 +31°C° 0 mm 2 m/s 751 mmHg 57%
    18:00 +29°C° 0 mm 2 m/s 752 mmHg 63%
    19:00 +27°C° 0 mm 2 m/s 752 mmHg 70%
    20:00 +25°C° 0 mm 2 m/s 752 mmHg 77%
    21:00 +25°C° 0 mm 1 m/s 753 mmHg 82%
    22:00 +24°C° 0 mm 1 m/s 753 mmHg 87%
    23:00 +23°C° 0 mm 1 m/s 753 mmHg 92%
    Arată mai mult